{"data":{"norad_id":66906,"intl_designator":"1998-067XS","name":"DUPLEX","alt_names":[],"object_type":"PAYLOAD","status":"ACTIVE","operator":null,"country":"US","launch_date":"1998-11-20","launch_site_code":"TYMSC","launch_vehicle":null,"mission":null,"orbit_class":"UNKNOWN","rcs_meters":null,"size_class":null,"mass_kg":null,"dimensions":null,"purposes":["station"],"wikipedia_slug":null,"has_3d_model":false,"image_url":null,"decayed_at":null,"tle_current":{"epoch":"2026-05-25T00:22:34.612032Z","epoch_age_seconds":63749,"freshness":"FRESH","line1":"1 66906U 98067XS  26145.01567838  .00033649  00000+0  40221-3 0  9999","line2":"2 66906  51.6288  46.3270 0005398 104.2596 255.8997 15.60666563 27034","mean_motion":15.60666563,"eccentricity":0.0005398,"inclination_deg":51.6288,"raan_deg":46.327,"arg_perigee_deg":104.2596,"mean_anomaly_deg":255.8997,"bstar":0.00040221,"rev_number":2703,"period_min":92.268267555624,"perigee_km":382.07935415391,"apogee_km":389.38162549593,"semimajor_km":6763.8674898249,"source":"CELESTRAK","updated_at":"2026-05-25T13:38:08.448725Z"}}}